{"data":{"norad_id":55337,"epoch":"2026-05-24T21:39:51.130368Z","epoch_age_seconds":83163,"freshness":"FRESH","line1":"1 55337U 23013G   26144.90267512 -.00000391  00000+0 -46719-5 0  9997","line2":"2 55337  43.0023 218.7130 0001011 268.7590  91.3146 15.27576108183490","mean_motion":15.27576108,"eccentricity":0.0001011,"inclination_deg":43.0023,"raan_deg":218.713,"arg_perigee_deg":268.759,"mean_anomaly_deg":91.3146,"bstar":-4.6719e-6,"rev_number":18349,"period_min":94.266988889041,"perigee_km":482.36708302,"apogee_km":483.75441720507,"semimajor_km":6861.1977501125,"source":"CELESTRAK","updated_at":"2026-05-25T13:38:17.760893Z"}}